Weather History for KO22 - August, 2013

Change the Weather History Date:

Wednesday, August 7, 2013

  Actual Average (KMOD) Record (KMOD)
Temperature  
Mean Temperature 68 °F -  
Max Temperature 82 °F 95 °F 107 °F (1983)
Min Temperature 53 °F 63 °F 52 °F (1947)
Degree Days  
Heating Degree Days 0 0  
Month to date heating degree days 0  
Since 1 June heating degree days 3  
Since 1 July heating degree days 0  
Cooling Degree Days 2 14  
Month to date cooling degree days 98  
Year to date cooling degree days 1033  
Since 1 June cooling degree days 834  
Growing Degree Days 18 (Base 50)    
Moisture  
Dew Point 45 °F    
Average Humidity 47    
Maximum Humidity 72    
Minimum Humidity 21    
Precipitation  
Precipitation 0.00 in 0.00 in 0.07 in (1989)
Month to date precipitation 0.00  
Year to date precipitation 8.75  
Snow  
Snow 0.00 in - - ()
Month to date snowfall  
Since 1 June snowfall  
Since 1 July snowfall  
Snow Depth -    
Sea Level Pressure  
Sea Level Pressure 30.05 in    
Wind  
Wind Speed 3 mph (WSW)    
Max Wind Speed 9 mph    
Max Gust Speed -    
Visibility 10 miles    
Events      
T = Trace of Precipitation, MM = Missing Value Source: NWS Daily Summary

Daily Weather History Graph

Daily Weather History Graph

Search for Another Location

Airport or City:

Trip Planner

Search our weather history database for the weather conditions in past years. The results will help you decide how hot, cold, wet, or windy it might be!

Date:

Astronomy

Aug. 07, 2013 Rise Set
Actual Time 6:10 AM PDT 8:04 PM PDT
Civil Twilight 5:41 AM PDT 8:32 PM PDT
Nautical Twilight 5:06 AM PDT 9:07 PM PDT
Astronomical Twilight 4:29 AM PDT 9:44 PM PDT
Moon 7:01 AM PDT (8/7) 8:16 PM PDT (8/7)
Length of Visible Light 14h 51m
Length of Day
13h 54m
New Moon, 1% of the Moon is Illuminated
Aug 7
New Moon
Aug 14
First Quarter
Aug 20
Full
Aug 28
Last Quarter
Sep 5
New

Hourly Weather History & Observations

Time (PDT) Temp. Dew Point Humidity Pressure Visibility Wind Dir Wind Speed Gust Speed Precip Events Conditions
12:15 AM 59.0 °F 44.6 °F 59% 30.03 in 10.0 mi NE 3.5 mph - N/A   Partly Cloudy
12:35 AM 59.0 °F 44.6 °F 59% 30.03 in 10.0 mi Calm Calm - N/A   Clear
12:55 AM 57.2 °F 44.6 °F 63% 30.03 in 10.0 mi Calm Calm - N/A   Clear
1:15 AM 57.2 °F 44.6 °F 63% 30.03 in 10.0 mi Calm Calm - N/A   Clear
1:35 AM 57.2 °F 44.6 °F 63% 30.02 in 10.0 mi Calm Calm - N/A   Clear
1:55 AM 57.2 °F 44.6 °F 63% 30.02 in 10.0 mi Calm Calm - N/A   Clear
2:15 AM 57.2 °F 44.6 °F 63% 30.02 in 10.0 mi NE 4.6 mph - N/A   Clear
2:35 AM 55.4 °F 44.6 °F 67% 30.02 in 10.0 mi NE 3.5 mph - N/A   Clear
2:55 AM 55.4 °F 44.6 °F 67% 30.02 in 10.0 mi Calm Calm - N/A   Clear
3:15 AM 55.4 °F 44.6 °F 67% 30.03 in 10.0 mi Calm Calm - N/A   Clear
3:35 AM 55.4 °F 44.6 °F 67% 30.02 in 10.0 mi Calm Calm - N/A   Clear
3:55 AM 55.4 °F 44.6 °F 67% 30.02 in 10.0 mi NE 3.5 mph - N/A   Clear
4:15 AM 55.4 °F 44.6 °F 67% 30.03 in 10.0 mi NE 3.5 mph - N/A   Clear
4:35 AM 55.4 °F 44.6 °F 67% 30.03 in 10.0 mi NE 3.5 mph - N/A   Clear
4:55 AM 55.4 °F 44.6 °F 67% 30.03 in 10.0 mi NE 3.5 mph - N/A   Clear
5:15 AM 53.6 °F 44.6 °F 72% 30.02 in 10.0 mi Calm Calm - N/A   Clear
5:35 AM 53.6 °F 44.6 °F 72% 30.03 in 10.0 mi Calm Calm - N/A   Clear
5:55 AM 53.6 °F 44.6 °F 72% 30.03 in 10.0 mi ENE 4.6 mph - N/A   Clear
6:15 AM 53.6 °F 44.6 °F 72% 30.04 in 10.0 mi NE 3.5 mph - N/A   Clear
6:35 AM 53.6 °F 44.6 °F 72% 30.04 in 10.0 mi Calm Calm - N/A   Partly Cloudy
6:55 AM 55.4 °F 44.6 °F 67% 30.04 in 10.0 mi NE 3.5 mph - N/A   Partly Cloudy
7:15 AM 59.0 °F 44.6 °F 59% 30.05 in 10.0 mi Calm Calm - N/A   Clear
7:35 AM 62.6 °F 44.6 °F 52% 30.05 in 10.0 mi Calm Calm - N/A   Clear
7:55 AM 64.4 °F 42.8 °F 45% 30.05 in 10.0 mi Calm Calm - N/A   Clear
8:15 AM 68.0 °F 42.8 °F 40% 30.06 in 10.0 mi Calm Calm - N/A   Clear
8:35 AM 69.8 °F 42.8 °F 38% 30.06 in 10.0 mi Calm Calm - N/A   Clear
8:55 AM 71.6 °F 44.6 °F 38% 30.07 in 10.0 mi SSW 3.5 mph - N/A   Clear
9:15 AM 71.6 °F 46.4 °F 41% 30.07 in 10.0 mi West 3.5 mph - N/A   Clear
9:35 AM 73.4 °F 48.2 °F 41% 30.07 in 10.0 mi SW 5.8 mph - N/A   Clear
9:55 AM 73.4 °F 48.2 °F 41% 30.08 in 10.0 mi South 3.5 mph - N/A   Clear
10:15 AM 75.2 °F 48.2 °F 38% 30.08 in 10.0 mi WSW 6.9 mph - N/A   Clear
10:35 AM 75.2 °F 48.2 °F 38% 30.09 in 10.0 mi WSW 5.8 mph - N/A   Clear
10:55 AM 75.2 °F 48.2 °F 38% 30.09 in 10.0 mi Calm Calm - N/A   Clear
11:15 AM 77.0 °F 48.2 °F 36% 30.09 in 10.0 mi South 5.8 mph - N/A   Clear
11:35 AM 77.0 °F 50.0 °F 39% 30.09 in 10.0 mi SW 6.9 mph - N/A   Clear
11:55 AM 77.0 °F 48.2 °F 36% 30.09 in 10.0 mi SSW 6.9 mph - N/A   Clear
12:15 PM 77.0 °F 46.4 °F 34% 30.09 in 10.0 mi South 6.9 mph - N/A   Clear
12:35 PM 77.0 °F 46.4 °F 34% 30.08 in 10.0 mi South 8.1 mph - N/A   Clear
12:55 PM 77.0 °F 44.6 °F 32% 30.08 in 10.0 mi SSE 6.9 mph - N/A   Clear
1:15 PM 78.8 °F 42.8 °F 28% 30.08 in 10.0 mi South 6.9 mph - N/A   Clear
1:35 PM 80.6 °F 42.8 °F 26% 30.08 in 10.0 mi SSW 5.8 mph - N/A   Clear
1:55 PM 78.8 °F 41.0 °F 26% 30.08 in 10.0 mi South 5.8 mph - N/A   Clear
2:15 PM 80.6 °F 42.8 °F 26% 30.08 in 10.0 mi SSW 6.9 mph - N/A   Clear
2:35 PM 80.6 °F 41.0 °F 24% 30.07 in 10.0 mi SSW 3.5 mph - N/A   Clear
2:55 PM 82.4 °F 41.0 °F 23% 30.06 in 10.0 mi South 6.9 mph - N/A   Clear
3:15 PM 82.4 °F 41.0 °F 23% 30.06 in 10.0 mi SW 6.9 mph - N/A   Clear
3:35 PM 82.4 °F 39.2 °F 21% 30.06 in 10.0 mi WSW 6.9 mph - N/A   Clear
3:55 PM 82.4 °F 39.2 °F 21% 30.05 in 10.0 mi WSW 8.1 mph - N/A   Clear
4:15 PM 80.6 °F 39.2 °F 23% 30.05 in 10.0 mi West 6.9 mph - N/A   Clear
4:35 PM 82.4 °F 42.8 °F 25% 30.05 in 10.0 mi West 6.9 mph - N/A   Clear
4:55 PM 80.6 °F 44.6 °F 28% 30.05 in 10.0 mi WSW 9.2 mph - N/A   Clear
5:15 PM 80.6 °F 44.6 °F 28% 30.05 in 10.0 mi West 5.8 mph - N/A   Clear
5:35 PM 80.6 °F 44.6 °F 28% 30.05 in 10.0 mi WNW 5.8 mph - N/A   Clear
5:55 PM 78.8 °F 44.6 °F 30% 30.04 in 10.0 mi West 8.1 mph - N/A   Clear
6:15 PM 78.8 °F 44.6 °F 30% 30.04 in 10.0 mi West 9.2 mph - N/A   Clear
6:35 PM 77.0 °F 41.0 °F 28% 30.04 in 10.0 mi West 6.9 mph - N/A   Clear
6:55 PM 75.2 °F 42.8 °F 31% 30.04 in 10.0 mi WNW 5.8 mph - N/A   Clear
7:15 PM 73.4 °F 44.6 °F 36% 30.04 in 10.0 mi NW 6.9 mph - N/A   Clear
7:35 PM 71.6 °F 44.6 °F 38% 30.05 in 10.0 mi NW 4.6 mph - N/A   Clear
7:55 PM 71.6 °F 44.6 °F 38% 30.04 in 10.0 mi NW 4.6 mph - N/A   Clear
8:15 PM 68.0 °F 46.4 °F 46% 30.04 in 10.0 mi Calm Calm - N/A   Clear
8:35 PM 66.2 °F 46.4 °F 49% 30.05 in 10.0 mi Calm Calm - N/A   Partly Cloudy
8:55 PM 64.4 °F 48.2 °F 56% 30.05 in 10.0 mi Calm Calm - N/A   Partly Cloudy
9:15 PM 64.4 °F 48.2 °F 56% 30.05 in 10.0 mi Calm Calm - N/A   Partly Cloudy
9:35 PM 64.4 °F 48.2 °F 56% 30.05 in 10.0 mi Calm Calm - N/A   Clear
9:55 PM 62.6 °F 48.2 °F 59% 30.05 in 10.0 mi Calm Calm - N/A   Clear
10:15 PM 60.8 °F 48.2 °F 63% 30.04 in 10.0 mi Calm Calm - N/A   Clear
10:35 PM 59.0 °F 48.2 °F 67% 30.04 in 10.0 mi Calm Calm - N/A   Clear
10:55 PM 59.0 °F 46.4 °F 63% 30.04 in 10.0 mi Calm Calm - N/A   Clear
11:15 PM 59.0 °F 48.2 °F 67% 30.04 in 10.0 mi Calm Calm - N/A   Clear
11:35 PM 57.2 °F 46.4 °F 67% 30.04 in 10.0 mi Calm Calm - N/A   Clear
11:55 PM 55.4 °F 46.4 °F 72% 30.04 in 10.0 mi Calm Calm - N/A   Clear